sat.trackr.live / text

‹ back to catalog

STARLINK-32746

NORAD 62745 · 2025-014L

PAYLOAD ACTIVE UNKNOWN

§ Identity

Operator
Country
US
Launch date
2025-01-21
Launch site
AFETR
Launch vehicle
Mass (kg)
RCS (m²)

Purposes: comms

External: N2YO · Heavens-Above · Gunter

§ Orbital elements

Epoch: 2026-05-25T04:48:08.443008Z

Period
94.26 min
Inclination
43.0021°
Eccentricity
0.0001033
Mean motion
15.27645079 rev/d
Perigee alt
482.1 km
Apogee alt
483.6 km
Semi-major
6,861.0 km
B*
1.5999e-3
RAAN
81.8683°
Arg perigee
262.8400°
Mean anomaly
97.2334°
Rev number
7,496

§ Raw data

STARLINK-327461 62745U 25014L   26145.20009772  .00044116  00000+0  15999-2 0  99912 62745  43.0021  81.8683 0001033 262.8400  97.2334 15.27645079 74969

JSON: /api/v1/satellites/62745 · /tle

For live sub-satellite position, see the globe view (requires WebGL).

§ Visibility from observer

Set your observer location to see the next 7 days of passes ≥ 10°. The values pass through the URL so the page stays shareable.

No JS? Fill the form by hand. The geolocation button needs JavaScript.